Weather History for Rensselaer, IN

Change the Weather History Date:

Thursday, December 26, 2013

  Actual Average (KVPZ) Record (KVPZ)
Temperature  
Mean Temperature 24 °F 25 °F  
Max Temperature 33 °F 32 °F 52 °F (2008)
Min Temperature 15 °F 18 °F 2 °F (2000)
Degree Days  
Heating Degree Days 41 40  
Month to date heating degree days 943  
Since 1 July heating degree days 2201  
Cooling Degree Days 0 0  
Month to date cooling degree days 0  
Year to date cooling degree days 713  
Moisture  
Dew Point 24 °F    
Average Humidity 84    
Maximum Humidity 100    
Minimum Humidity 80    
Precipitation  
Precipitation 0.00 in 0.06 in 0.13 in (2008)
Month to date precipitation 1.85  
Year to date precipitation 37.18  
Sea Level Pressure  
Sea Level Pressure 30.24 in    
Wind  
Wind Speed 13 mph (SW)    
Max Wind Speed 21 mph    
Max Gust Speed 28 mph    
Visibility 10 miles    
Events      
T = Trace of Precipitation, MM = Missing Value Source: NWS Daily Summary

Daily Weather History Graph

Daily Weather History Graph

Search for Another Location

Airport:

Trip Planner

Search our weather history database for the weather conditions in past years. The results will help you decide how hot, cold, wet, or windy it might be!

Date:

Astronomy

Dec. 26, 2013 Rise Set
Actual Time 7:12 AM CST 4:26 PM CST
Civil Twilight 6:41 AM CST 4:57 PM CST
Nautical Twilight 6:06 AM CST 5:32 PM CST
Astronomical Twilight 5:33 AM CST 6:06 PM CST
Moon 12:38 AM CST (12/26) 12:03 PM CST (12/26)
Length of Visible Light 10h 16m
Length of Day
9h 14m
Last Quarter, 38% of the Moon is Illuminated
Dec 26
Last Quarter
Jan 1
New
Jan 7
First Quarter
Jan 15
Full
Jan 23
Last Quarter

Hourly Weather History & Observations

Time (CST) Temp. Windchill Dew Point Humidity Pressure Visibility Wind Dir Wind Speed Gust Speed Precip Events Conditions
12:15 AM 28.4 °F 18.0 °F 26.6 °F 93% 30.13 in 7.0 mi West 12.7 mph 19.6 mph N/A   Overcast
12:35 AM 28.4 °F 16.2 °F 26.6 °F 93% 30.13 in 7.0 mi West 17.3 mph - N/A   Overcast
12:55 AM 28.4 °F 18.0 °F 26.6 °F 93% 30.13 in 7.0 mi WSW 12.7 mph - N/A   Overcast
1:15 AM 28.4 °F 16.2 °F 28.4 °F 100% 30.13 in 7.0 mi WSW 17.3 mph 25.3 mph N/A   Overcast
1:35 AM 28.4 °F 17.0 °F 26.6 °F 93% 30.14 in 10.0 mi West 15.0 mph 21.9 mph N/A   Mostly Cloudy
1:55 AM 28.4 °F 18.0 °F 26.6 °F 93% 30.15 in 10.0 mi WSW 12.7 mph 18.4 mph N/A   Overcast
2:15 AM 28.4 °F 16.2 °F 26.6 °F 93% 30.16 in 7.0 mi WSW 17.3 mph 25.3 mph N/A   Mostly Cloudy
2:35 AM 26.6 °F 14.7 °F 23.0 °F 86% 30.17 in 10.0 mi WSW 15.0 mph 26.5 mph N/A   Scattered Clouds
2:55 AM 24.8 °F 10.3 °F 19.4 °F 80% 30.17 in 10.0 mi West 20.7 mph 26.5 mph N/A   Clear
3:15 AM 23.0 °F 10.1 °F 19.4 °F 86% 30.18 in 10.0 mi West 15.0 mph - N/A   Clear
3:35 AM 23.0 °F 10.1 °F 19.4 °F 86% 30.18 in 10.0 mi West 15.0 mph - N/A   Clear
3:55 AM 21.2 °F 6.4 °F 15.8 °F 80% 30.19 in 10.0 mi West 18.4 mph 27.6 mph N/A   Clear
4:15 AM 21.2 °F 7.3 °F 15.8 °F 80% 30.19 in 10.0 mi West 16.1 mph 21.9 mph N/A   Clear
4:35 AM 21.2 °F 7.3 °F 15.8 °F 80% 30.21 in 10.0 mi West 16.1 mph 20.7 mph N/A   Clear
4:55 AM 19.4 °F 7.2 °F 14.0 °F 80% 30.21 in 10.0 mi West 11.5 mph 19.6 mph N/A   Clear
5:15 AM 19.4 °F 8.6 °F 14.0 °F 80% 30.21 in 10.0 mi West 9.2 mph - N/A   Clear
5:35 AM 17.6 °F 6.4 °F 14.0 °F 86% 30.22 in 10.0 mi West 9.2 mph - N/A   Clear
5:55 AM 17.6 °F 8.2 °F 14.0 °F 86% 30.23 in 10.0 mi West 6.9 mph - N/A   Clear
6:15 AM 17.6 °F 8.2 °F 14.0 °F 86% 30.24 in 10.0 mi WSW 6.9 mph - N/A   Clear
6:35 AM 17.6 °F 8.2 °F 14.0 °F 86% 30.24 in 10.0 mi WSW 6.9 mph - N/A   Clear
6:55 AM 17.6 °F 9.3 °F 14.0 °F 86% 30.25 in 10.0 mi SW 5.8 mph - N/A   Clear
7:15 AM 15.8 °F 6.1 °F 12.2 °F 86% 30.26 in 10.0 mi SW 6.9 mph - N/A   Clear
7:35 AM 17.6 °F 8.2 °F 14.0 °F 86% 30.26 in 10.0 mi WSW 6.9 mph - N/A   Clear
7:55 AM 19.4 °F 9.5 °F 15.8 °F 86% 30.27 in 10.0 mi WSW 8.1 mph - N/A   Clear
8:15 AM 19.4 °F 7.9 °F 17.6 °F 93% 30.27 in 10.0 mi WSW 10.4 mph - N/A   Clear
8:35 AM 21.2 °F 10.1 °F 17.6 °F 86% 30.28 in 10.0 mi WSW 10.4 mph - N/A   Clear
8:55 AM 23.0 °F 11.7 °F 19.4 °F 86% 30.29 in 10.0 mi WSW 11.5 mph - N/A   Scattered Clouds
9:15 AM 23.0 °F 11.1 °F 19.4 °F 86% 30.31 in 10.0 mi WSW 12.7 mph - N/A   Scattered Clouds
9:35 AM 24.8 °F 14.0 °F 21.2 °F 86% 30.32 in 10.0 mi WSW 11.5 mph - N/A   Mostly Cloudy
9:55 AM 26.6 °F 16.8 °F 21.2 °F 80% 30.32 in 10.0 mi WSW 10.4 mph - N/A   Mostly Cloudy
10:15 AM 26.6 °F 16.8 °F 23.0 °F 86% 30.32 in 10.0 mi WSW 10.4 mph - N/A   Overcast
10:35 AM 28.4 °F 18.0 °F 23.0 °F 80% 30.32 in 10.0 mi SW 12.7 mph - N/A   Mostly Cloudy
10:55 AM 28.4 °F 18.5 °F 23.0 °F 80% 30.31 in 10.0 mi SW 11.5 mph - N/A   Scattered Clouds
11:15 AM 30.2 °F 20.8 °F 26.6 °F 86% 30.31 in 10.0 mi SW 11.5 mph - N/A   Clear
11:35 AM 30.2 °F 21.3 °F 26.6 °F 86% 30.31 in 10.0 mi SW 10.4 mph - N/A   Clear
11:55 AM 32.0 °F 23.6 °F 26.6 °F 80% 30.30 in 10.0 mi SW 10.4 mph - N/A   Scattered Clouds
12:15 PM 32.0 °F 23.0 °F 26.6 °F 80% 30.29 in 10.0 mi SW 11.5 mph - N/A   Scattered Clouds
12:35 PM 32.0 °F 23.6 °F 26.6 °F 80% 30.29 in 10.0 mi SW 10.4 mph - N/A   Clear
12:55 PM 32.0 °F 23.0 °F 26.6 °F 80% 30.28 in 10.0 mi SSW 11.5 mph - N/A   Scattered Clouds
1:15 PM 32.0 °F 24.2 °F 28.4 °F 87% 30.28 in 10.0 mi SW 9.2 mph - N/A   Mostly Cloudy
1:35 PM 33.8 °F 25.8 °F 28.4 °F 81% 30.27 in 10.0 mi SW 10.4 mph - N/A   Mostly Cloudy
1:55 PM 33.8 °F 25.8 °F 28.4 °F 81% 30.25 in 10.0 mi SSW 10.4 mph - N/A   Overcast
2:15 PM 33.8 °F 24.8 °F 28.4 °F 81% 30.25 in 10.0 mi SSW 12.7 mph - N/A   Overcast
2:35 PM 33.8 °F 24.3 °F 28.4 °F 81% 30.25 in 10.0 mi SSW 13.8 mph - N/A   Overcast
2:55 PM 33.8 °F 23.9 °F 28.4 °F 81% 30.25 in 10.0 mi South 15.0 mph - N/A   Overcast
3:15 PM 33.8 °F 25.3 °F 28.4 °F 81% 30.24 in 10.0 mi South 11.5 mph - N/A   Overcast
3:35 PM 33.8 °F 25.3 °F 28.4 °F 81% 30.25 in 10.0 mi South 11.5 mph - N/A   Scattered Clouds
3:55 PM 33.8 °F 24.8 °F 28.4 °F 81% 30.25 in 10.0 mi South 12.7 mph - N/A   Clear
4:15 PM 32.0 °F 22.5 °F 28.4 °F 87% 30.25 in 10.0 mi South 12.7 mph - N/A   Clear
4:35 PM 32.0 °F 23.0 °F 28.4 °F 87% 30.25 in 10.0 mi South 11.5 mph - N/A   Clear
4:55 PM 32.0 °F 23.0 °F 28.4 °F 87% 30.25 in 10.0 mi South 11.5 mph - N/A   Scattered Clouds
5:15 PM 32.0 °F 24.2 °F 28.4 °F 87% 30.24 in 10.0 mi South 9.2 mph - N/A   Scattered Clouds
5:35 PM 32.0 °F 24.8 °F 28.4 °F 87% 30.24 in 10.0 mi South 8.1 mph - N/A   Mostly Cloudy
5:55 PM 32.0 °F 23.6 °F 28.4 °F 87% 30.23 in 10.0 mi South 10.4 mph - N/A   Mostly Cloudy
6:15 PM 32.0 °F 24.2 °F 28.4 °F 87% 30.23 in 10.0 mi South 9.2 mph - N/A   Scattered Clouds
6:35 PM 32.0 °F 24.2 °F 28.4 °F 87% 30.22 in 10.0 mi South 9.2 mph - N/A   Scattered Clouds
6:55 PM 33.8 °F 25.8 °F 28.4 °F 81% 30.22 in 10.0 mi South 10.4 mph - N/A   Mostly Cloudy
7:15 PM 33.8 °F 25.3 °F 28.4 °F 81% 30.22 in 10.0 mi South 11.5 mph - N/A   Overcast
7:35 PM 33.8 °F 25.3 °F 28.4 °F 81% 30.22 in 10.0 mi South 11.5 mph - N/A   Overcast
7:55 PM 33.8 °F 23.9 °F 28.4 °F 81% 30.23 in 10.0 mi South 15.0 mph - N/A   Overcast
8:15 PM 33.8 °F 24.8 °F 28.4 °F 81% 30.23 in 10.0 mi SSW 12.7 mph - N/A   Overcast
8:35 PM 33.8 °F 24.3 °F 28.4 °F 81% 30.24 in 10.0 mi SSW 13.8 mph - N/A   Overcast
8:55 PM 33.8 °F 24.8 °F 28.4 °F 81% 30.24 in 10.0 mi SSW 12.7 mph 18.4 mph N/A   Overcast
9:15 PM 33.8 °F 24.3 °F 28.4 °F 81% 30.24 in 10.0 mi SSW 13.8 mph - N/A   Overcast
9:35 PM 33.8 °F 25.8 °F 28.4 °F 81% 30.24 in 10.0 mi SSW 10.4 mph - N/A   Overcast
9:55 PM 33.8 °F 25.3 °F 28.4 °F 81% 30.24 in 10.0 mi SSW 11.5 mph - N/A   Overcast
10:15 PM 33.8 °F 24.3 °F 28.4 °F 81% 30.24 in 10.0 mi SSW 13.8 mph - N/A   Overcast
10:35 PM 33.8 °F 24.8 °F 28.4 °F 81% 30.24 in 10.0 mi SSW 12.7 mph 18.4 mph N/A   Overcast
10:55 PM 33.8 °F 24.3 °F 28.4 °F 81% 30.24 in 10.0 mi SSW 13.8 mph 18.4 mph N/A   Overcast
11:15 PM 33.8 °F 23.5 °F 28.4 °F 81% 30.24 in 10.0 mi SSW 16.1 mph - N/A   Overcast
11:35 PM 33.8 °F 23.5 °F 28.4 °F 81% 30.24 in 10.0 mi SW 16.1 mph 21.9 mph N/A   Overcast
11:55 PM 33.8 °F 23.9 °F 28.4 °F 81% 30.24 in 10.0 mi SW 15.0 mph - N/A   Mostly Cloudy